Lambertville, MI

3:04 PM EDT on July 29, 2016 (GMT -0400)
Toledo Suburban Airport

Weather History for KDUH - March, 2013

Change the Weather History Date:

Tuesday, March 12, 2013

  Actual Average (KTOL) Record (KTOL)
Temperature  
Mean Temperature 35 °F 36 °F  
Max Temperature 38 °F 45 °F 76 °F (1990)
Min Temperature 32 °F 27 °F -10 °F (1948)
Degree Days  
Heating Degree Days 30 29  
Month to date heating degree days 372  
Since 1 July heating degree days 4948  
Cooling Degree Days 0 0  
Month to date cooling degree days 0  
Year to date cooling degree days 0  
Moisture  
Dew Point 28 °F    
Average Humidity 75    
Maximum Humidity 85    
Minimum Humidity 62    
Precipitation  
Precipitation 0.00 in 0.07 in 1.32 in (2012)
Month to date precipitation 0.90  
Year to date precipitation 5.02  
Snow  
Snow 0.00 in 0.30 in - ()
Month to date snowfall 2.9  
Since 1 July snowfall 33.4  
Snow Depth -    
Sea Level Pressure  
Sea Level Pressure 29.86 in    
Wind  
Wind Speed 11 mph (WSW)    
Max Wind Speed 18 mph    
Max Gust Speed 30 mph    
Visibility 10 miles    
Events Snow    
T = Trace of Precipitation, MM = Missing Value Source: NWS Daily Summary

Daily Weather History Graph

Daily Weather History Graph

Search for Another Location

Airport or City:

Trip Planner

Search our weather history database for the weather conditions in past years. The results will help you decide how hot, cold, wet, or windy it might be!

Date:

Astronomy

Mar. 12, 2013 Rise Set
Actual Time 7:51 AM EDT 7:38 PM EDT
Civil Twilight 7:23 AM EDT 8:05 PM EDT
Nautical Twilight 6:51 AM EDT 8:38 PM EDT
Astronomical Twilight 6:18 AM EDT 9:10 PM EDT
Moon 7:55 AM EDT (3/12) 8:54 PM EDT (3/12)
Length of Visible Light 12h 42m
Length of Day
11h 47m
New Moon, 1% of the Moon is Illuminated
Mar 12
New Moon
Mar 19
First Quarter
Mar 27
Full
Apr 3
Last Quarter
Apr 10
New

Hourly Weather History & Observations

Time (EDT) Temp. Windchill Dew Point Humidity Pressure Visibility Wind Dir Wind Speed Gust Speed Precip Events Conditions
12:15 AM 38.3 °F 30.9 °F 31.5 °F 76% 29.74 in 10.0 mi WSW 11.5 mph 18.4 mph N/A   Overcast
12:35 AM 37.9 °F 29.2 °F 31.6 °F 78% 29.74 in 10.0 mi SW 15.0 mph 20.7 mph N/A   Overcast
12:55 AM 37.6 °F 30.5 °F 31.6 °F 79% 29.75 in 10.0 mi SW 10.4 mph 20.7 mph N/A   Overcast
1:15 AM 37.4 °F 30.3 °F 31.8 °F 80% 29.75 in 10.0 mi SW 10.4 mph 18.4 mph N/A   Overcast
1:35 AM 37.6 °F 29.6 °F 31.6 °F 79% 29.75 in 10.0 mi SW 12.7 mph 19.6 mph N/A   Overcast
2:15 AM 37.4 °F 28.9 °F 31.6 °F 80% 29.76 in 10.0 mi SW 13.8 mph 18.4 mph N/A   Overcast
2:35 AM 37.0 °F 30.4 °F 31.8 °F 81% 29.77 in 10.0 mi WSW 9.2 mph 18.4 mph N/A   Overcast
2:55 AM 37.0 °F 29.8 °F 31.1 °F 79% 29.77 in 10.0 mi WSW 10.4 mph 21.9 mph N/A   Overcast
3:15 AM 36.9 °F 28.7 °F 30.6 °F 78% 29.77 in 10.0 mi SW 12.7 mph 20.7 mph N/A   Overcast
3:35 AM 36.5 °F 28.7 °F 30.0 °F 77% 29.78 in 10.0 mi WSW 11.5 mph 20.7 mph N/A   Overcast
3:55 AM 36.5 °F 27.4 °F 29.8 °F 77% 29.78 in 10.0 mi WSW 15.0 mph 20.7 mph N/A   Overcast
4:15 AM 36.1 °F 29.3 °F 29.7 °F 77% 29.78 in 10.0 mi WSW 9.2 mph - N/A   Overcast
4:35 AM 36.0 °F 28.5 °F 29.8 °F 78% 29.78 in 10.0 mi WSW 10.4 mph 18.4 mph N/A   Overcast
4:55 AM 35.8 °F 27.3 °F 29.8 °F 79% 29.79 in 10.0 mi WSW 12.7 mph 18.4 mph N/A   Overcast
5:15 AM 35.6 °F 27.1 °F 29.3 °F 78% 29.79 in 10.0 mi WSW 12.7 mph 17.3 mph N/A   Overcast
5:35 AM 35.6 °F 27.5 °F 29.1 °F 77% 29.79 in 10.0 mi WSW 11.5 mph 18.4 mph N/A   Overcast
5:55 AM 35.6 °F 28.0 °F 29.1 °F 77% 29.80 in 10.0 mi WSW 10.4 mph 19.6 mph N/A   Overcast
6:15 AM 35.2 °F 28.1 °F 29.3 °F 79% 29.81 in 10.0 mi WSW 9.2 mph 16.1 mph N/A   Overcast
6:35 AM 35.1 °F 26.4 °F 29.3 °F 80% 29.82 in 10.0 mi WSW 12.7 mph 24.2 mph N/A   Overcast
6:55 AM 35.1 °F 25.9 °F 29.3 °F 80% 29.82 in 10.0 mi WSW 13.8 mph 21.9 mph N/A   Overcast
7:15 AM 34.2 °F 26.2 °F 30.0 °F 85% 29.83 in 4.0 mi WSW 10.4 mph 17.3 mph N/A Snow Light Snow
7:35 AM 34.7 °F 28.8 °F 30.2 °F 84% 29.83 in 7.0 mi West 6.9 mph - N/A   Overcast
7:55 AM 34.3 °F 27.0 °F 29.8 °F 84% 29.84 in 10.0 mi WSW 9.2 mph - N/A   Overcast
8:15 AM 34.7 °F 27.5 °F 29.3 °F 81% 29.85 in 10.0 mi WSW 9.2 mph - N/A   Overcast
8:35 AM 34.7 °F 26.9 °F 29.3 °F 81% 29.85 in 10.0 mi WSW 10.4 mph 17.3 mph N/A   Overcast
8:55 AM 34.7 °F 25.9 °F 29.3 °F 81% 29.85 in 10.0 mi WSW 12.7 mph 16.1 mph N/A   Overcast
9:15 AM 34.7 °F 27.5 °F 29.1 °F 80% 29.86 in 10.0 mi WSW 9.2 mph 18.4 mph N/A   Overcast
9:35 AM 34.7 °F 27.5 °F 29.1 °F 80% 29.87 in 10.0 mi West 9.2 mph 16.1 mph N/A   Overcast
9:55 AM 34.7 °F 25.9 °F 28.9 °F 79% 29.87 in 10.0 mi WSW 12.7 mph 16.1 mph N/A   Overcast
10:15 AM 34.7 °F 26.9 °F 28.6 °F 78% 29.88 in 10.0 mi WSW 10.4 mph 16.1 mph N/A   Overcast
10:35 AM 34.5 °F 27.3 °F 28.9 °F 80% 29.88 in 5.0 mi WSW 9.2 mph - N/A   Haze
10:55 AM 34.5 °F 26.2 °F 28.6 °F 79% 29.88 in 7.0 mi WSW 11.5 mph - N/A   Overcast
11:15 AM 34.7 °F 27.5 °F 28.9 °F 79% 29.88 in 5.0 mi SW 9.2 mph - N/A   Haze
11:35 AM 34.3 °F 25.0 °F 28.4 °F 79% 29.89 in 7.0 mi WSW 13.8 mph 17.3 mph N/A   Overcast
11:55 AM 34.7 °F 25.9 °F 28.4 °F 78% 29.89 in 10.0 mi WSW 12.7 mph 17.3 mph N/A   Overcast
12:15 PM 34.7 °F 25.1 °F 28.2 °F 77% 29.88 in 10.0 mi SW 15.0 mph 19.6 mph N/A   Overcast
12:35 PM 34.7 °F 25.9 °F 28.0 °F 77% 29.89 in 10.0 mi WSW 12.7 mph 18.4 mph N/A   Overcast
12:55 PM 35.1 °F 27.4 °F 28.2 °F 76% 29.89 in 10.0 mi West 10.4 mph 19.6 mph N/A   Overcast
1:15 PM 35.1 °F 26.9 °F 27.5 °F 74% 29.90 in 10.0 mi WSW 11.5 mph 21.9 mph N/A   Overcast
1:35 PM 34.0 °F 26.6 °F 28.4 °F 80% 29.90 in 7.0 mi SW 9.2 mph 18.4 mph N/A   Overcast
1:55 PM 34.0 °F 23.8 °F 27.5 °F 77% 29.90 in 10.0 mi SW 16.1 mph 23.0 mph N/A   Overcast
2:15 PM 33.8 °F 24.8 °F 26.8 °F 75% 29.91 in 10.0 mi SW 12.7 mph 20.7 mph N/A   Overcast
2:35 PM 34.0 °F 24.2 °F 25.9 °F 72% 29.90 in 10.0 mi WSW 15.0 mph 23.0 mph N/A   Overcast
2:55 PM 35.4 °F 26.4 °F 25.7 °F 68% 29.88 in 10.0 mi WSW 13.8 mph 21.9 mph N/A   Overcast
3:15 PM 35.6 °F 27.1 °F 24.4 °F 64% 29.89 in 10.0 mi WSW 12.7 mph 21.9 mph N/A   Overcast
3:35 PM 35.6 °F 25.2 °F 23.9 °F 62% 29.89 in 10.0 mi West 18.4 mph 29.9 mph N/A   Overcast
3:55 PM 35.1 °F 25.9 °F 23.5 °F 63% 29.90 in 10.0 mi WSW 13.8 mph 25.3 mph N/A   Overcast
4:15 PM 34.9 °F 26.2 °F 23.5 °F 63% 29.89 in 10.0 mi WSW 12.7 mph 18.4 mph N/A   Overcast
4:35 PM 35.1 °F 26.4 °F 24.1 °F 64% 29.90 in 10.0 mi West 12.7 mph 23.0 mph N/A   Overcast
4:55 PM 35.2 °F 27.1 °F 24.1 °F 64% 29.90 in 10.0 mi WSW 11.5 mph 18.4 mph N/A   Overcast
5:15 PM 34.9 °F 27.1 °F 24.6 °F 66% 29.91 in 10.0 mi West 10.4 mph 17.3 mph N/A   Overcast
5:35 PM 34.7 °F 27.5 °F 25.0 °F 68% 29.91 in 10.0 mi West 9.2 mph - N/A   Overcast
5:55 PM 34.7 °F 27.5 °F 24.8 °F 67% 29.92 in 10.0 mi WSW 9.2 mph 18.4 mph N/A   Overcast
6:15 PM 34.7 °F 26.9 °F 24.8 °F 67% 29.91 in 10.0 mi WSW 10.4 mph 19.6 mph N/A   Overcast
6:35 PM 34.7 °F 26.4 °F 24.8 °F 67% 29.92 in 10.0 mi WSW 11.5 mph 16.1 mph N/A   Overcast
6:55 PM 34.7 °F 26.9 °F 25.2 °F 68% 29.92 in 10.0 mi WSW 10.4 mph - N/A   Overcast
7:15 PM 34.7 °F 27.5 °F 25.2 °F 68% 29.92 in 10.0 mi WSW 9.2 mph - N/A   Overcast
7:35 PM 34.7 °F 28.1 °F 25.3 °F 69% 29.92 in 10.0 mi WSW 8.1 mph - N/A   Overcast
7:55 PM 34.9 °F 27.7 °F 25.0 °F 67% 29.93 in 10.0 mi SW 9.2 mph - N/A   Overcast
8:15 PM 34.9 °F 27.7 °F 25.2 °F 68% 29.93 in 10.0 mi WSW 9.2 mph - N/A   Overcast
8:35 PM 35.1 °F 27.9 °F 25.5 °F 68% 29.93 in 10.0 mi WSW 9.2 mph - N/A   Overcast
8:55 PM 34.2 °F 29.0 °F 24.8 °F 69% 29.93 in 10.0 mi WSW 5.8 mph - N/A   Scattered Clouds
9:15 PM 33.8 °F 27.7 °F 24.8 °F 70% 29.94 in 10.0 mi WSW 6.9 mph - N/A   Clear
9:35 PM 33.4 °F 27.3 °F 24.8 °F 71% 29.94 in 10.0 mi WSW 6.9 mph - N/A   Clear
9:55 PM 32.7 °F 28.3 °F 24.8 °F 73% 29.94 in 10.0 mi WSW 4.6 mph - N/A   Clear
10:15 PM 32.0 °F 28.7 °F 24.6 °F 74% 29.94 in 10.0 mi SW 3.5 mph - N/A   Clear
10:35 PM 32.0 °F 27.5 °F 24.3 °F 73% 29.94 in 10.0 mi SSW 4.6 mph - N/A   Clear
10:55 PM 32.0 °F 26.4 °F 23.9 °F 72% 29.94 in 10.0 mi SSW 5.8 mph - N/A   Scattered Clouds
11:15 PM 32.0 °F 26.4 °F 23.9 °F 72% 29.93 in 10.0 mi SSW 5.8 mph - N/A   Mostly Cloudy
11:35 PM 32.2 °F 28.9 °F 23.9 °F 72% 29.93 in 10.0 mi SW 3.5 mph - N/A   Overcast
11:55 PM 32.7 °F 27.3 °F 24.3 °F 71% 29.93 in 10.0 mi SW 5.8 mph - N/A   Overcast